Santiago, Chile

1:52 AM -03 on February 18, 2018 (GMT -0300)
Arturo Merino Benitez International

Weather History for SCEL - February, 2018

Change the Weather History Date:

Monday, February 5, 2018

  Actual Average Record
Temperature  
Mean Temperature 72 °F -  
Max Temperature 85 °F 81 °F 92 °F (2017)
Min Temperature 58 °F 51 °F 51 °F (1997)
Cooling Degree Days 6    
Growing Degree Days 22 (Base 50)    
Moisture  
Dew Point 56 °F    
Average Humidity 64    
Maximum Humidity 88    
Minimum Humidity 31    
Precipitation  
Precipitation 0.00 in - - ()
Sea Level Pressure  
Sea Level Pressure 29.93 in    
Wind  
Wind Speed 8 mph ()    
Max Wind Speed 16 mph    
Max Gust Speed -    
Visibility 5.5 miles    
Events      
Averages and records for this station are not official NWS values.
T = Trace of Precipitation, MM = Missing Value Source: Averaged Metar Reports

Daily Weather History Graph

Daily Weather History Graph

Search for Another Location

Airport or City:

Trip Planner

Search our weather history database for the weather conditions in past years. The results will help you decide how hot, cold, wet, or windy it might be!

Date:

Astronomy

Feb. 05, 2018 Rise Set
Actual Time 7:09 AM -03 8:44 PM -03
Civil Twilight 6:43 AM -03 9:10 PM -03
Nautical Twilight 6:11 AM -03 9:42 PM -03
Astronomical Twilight 5:37 AM -03 10:15 PM -03
Moon No Moon Rise 12:24 PM -03 (2/5)
Length of Visible Light 14h 27m
Length of Day
13h 34m
Waning Gibbous, 70% of the Moon is Illuminated
Feb 5
Waning Gibbous
Feb 7
Last Quarter
Feb 15
New
Feb 23
First Quarter
Mar 1
Full

Hourly Weather History & Observations

Time (-03) Temp. Heat Index Dew Point Humidity Pressure Visibility Wind Dir Wind Speed Gust Speed Precip Events Conditions
12:00 AM 66.2 °F - 55.4 °F 68% 29.95 in - SSE 12.7 mph - N/A   Clear
1:00 AM 64.4 °F - 55.4 °F 73% 29.95 in - SSE 10.4 mph - N/A   Clear
2:00 AM 62.6 °F - 55.4 °F 77% 29.95 in - South 10.4 mph - N/A   Clear
3:00 AM 62 °F - 55 °F 73% 29.93 in 6 mi SSE 6.9 mph - -   Partly Cloudy
3:00 AM 62.6 °F - 55.4 °F 77% 29.95 in - SSE 6.9 mph - N/A   Clear
4:00 AM 60.8 °F - 55.4 °F 82% 29.92 in - SSE 5.8 mph - N/A   Clear
5:00 AM 60.8 °F - 55.4 °F 82% 29.92 in - SSE 5.8 mph - N/A   Clear
6:00 AM 60.8 °F - 55.4 °F 82% 29.92 in - SE 5.8 mph - N/A   Clear
7:00 AM 59.0 °F - 55.4 °F 88% 29.95 in 5.0 mi SSE 6.9 mph - N/A   Unknown
7:24 AM 59.0 °F - 55.4 °F 88% 29.95 in 5.0 mi SSE 8.1 mph - N/A   Partly Cloudy
8:00 AM 59.0 °F - 55.4 °F 88% 29.98 in 3.1 mi South 8.1 mph - N/A   Scattered Clouds
9:00 AM 60 °F - 56 °F 83% 29.99 in 4 mi SSE 6.9 mph - -   Haze
9:00 AM 60.8 °F - 55.4 °F 82% 30.01 in 4.3 mi SSE 6.9 mph - N/A   Partly Cloudy
10:00 AM 64.4 °F - 57.2 °F 77% 30.01 in 5.0 mi South 4.6 mph - N/A   Unknown
11:00 AM 71.6 °F - 55.4 °F 57% 29.98 in 6.2 mi Variable 2.3 mph - N/A   Partly Cloudy
12:00 PM 75.2 °F - 57.2 °F 53% 29.98 in - Variable 4.6 mph - N/A   Clear
1:00 PM 78.8 °F - 57.2 °F 47% 29.95 in - South 8.1 mph - N/A   Clear
2:00 PM 82.4 °F 82.0 °F 57.2 °F 42% 29.92 in - South 12.7 mph - N/A   Clear
3:00 PM 83 °F - 57 °F 31% 29.83 in 6 mi SW 15.0 mph - -   Partly Cloudy
3:00 PM 82.4 °F 82.0 °F 57.2 °F 42% 29.92 in - SW 15.0 mph - N/A   Clear
4:00 PM 82.4 °F 82.0 °F 57.2 °F 42% 29.89 in - SSW 16.1 mph - N/A   Clear
5:00 PM 82.4 °F 82.5 °F 59.0 °F 45% 29.89 in 6.2 mi SW 15.0 mph - N/A   Mostly Cloudy
6:00 PM 78.8 °F - 59.0 °F 51% 29.89 in 6.2 mi SSW 13.8 mph - N/A   Mostly Cloudy
7:00 PM 77.0 °F - 57.2 °F 50% 29.86 in 6.2 mi SSW 10.4 mph - N/A   Mostly Cloudy
8:00 PM 77.0 °F - 57.2 °F 50% 29.89 in 6.2 mi South 10.4 mph - N/A   Mostly Cloudy
9:00 PM 73 °F - 57 °F 48% 29.84 in 6 mi SSE 12.7 mph - -   Partly Cloudy
9:00 PM 73.4 °F - 57.2 °F 57% 29.89 in 6.2 mi SSE 12.7 mph - N/A   Mostly Cloudy
10:00 PM 71.6 °F - 57.2 °F 60% 29.92 in 6.2 mi SSE 10.4 mph - N/A   Mostly Cloudy
11:00 PM 69.8 °F - 57.2 °F 64% 29.92 in - SSE 9.2 mph - N/A   Clear